User: anonymous   Login
Location: Catacaguana
(10.4120°N, 66.7591°W)
Time: 13:51:30
(UTC+00:00)
Language:

SL-08 R/B - Orbit

View from above orbital plane
View from above orbital plane
View from above satellite
View from above satellite

Ground track
Ground track

The orbit data is extracted from the following two-line orbital elements,

1 27561U 02054C   24054.13450963  .00000805  00000-0  18783-3 0  9991
2 27561  98.5280 245.3684 0044622 213.6910 146.1450 14.57015432127628
Epoch (UTC): 23 February 2024 03:13:41
Eccentricity: 0.0044622
inclination: 98.5280°
perigee height: 671 km
apogee height: 734 km
right ascension of ascending node: 245.3684°
argument of perigee: 213.6910°
revolutions per day: 14.57015432
mean anomaly at epoch: 146.1450°
orbit number at epoch: 12762

The dashed part of the orbit path shows where the satellite is in the earth's shadow,  

DLR